DW6214 Weather Reports


Display with metric or nautical units.
time (UTC)temp
F
wind
direction
speed
MPH
gust
MPH
rain 1hr
in
rain 24hr
in
rain mn
in
humidity
%
barometer
mb
20260906073048 78 101 2.0 3.0 0.00 0.00 0.00 44 1023.7
20260906071023 74 140 1.0 2.0 0.00 0.00 0.00 50 1023.5
20260906070033 72 141 1.0 2.0 0.00 0.00 0.00 52 1023.4
20260906065021 70 141 1.0 2.0 0.00 0.00 0.00 56 1023.4
20260906064022 69 142 0.0 0.0 0.00 0.00 0.00 56 1023.4
20260906063028 68 142 0.0 0.0 0.00 0.00 0.00 58 1023.3
20260906062017 66 142 1.0 3.0 0.00 0.00 0.00 60 1023.3
20260906061044 66 142 0.0 0.0 0.00 0.00 0.00 60 1023.1
20260906060031 65 142 0.0 0.0 0.00 0.00 0.00 62 1023.0
20260906055017 64 142 0.0 0.0 0.00 0.00 0.00 63 1023.0
20260906054025 63 142 0.0 0.0 0.00 0.00 0.00 63 1023.0
20260906053016 62 142 0.0 0.0 0.00 0.00 0.00 65 1023.1
20260906052019 62 142 0.0 0.0 0.00 0.00 0.00 65 1023.1
20260906051023 62 142 0.0 0.0 0.00 0.00 0.00 66 1023.1
20260906050031 61 142 0.0 0.0 0.00 0.00 0.00 68 1023.0
20260906045016 60 142 0.0 0.0 0.00 0.00 0.00 68 1023.1
20260906044018 60 142 0.0 0.0 0.00 0.00 0.00 69 1023.0
20260906043026 60 142 0.0 0.0 0.00 0.00 0.00 68 1022.9
20260906042015 60 142 0.0 0.0 0.00 0.00 0.00 69 1022.9
20260906041043 60 142 0.0 0.0 0.00 0.00 0.00 67 1022.7
20260906040031 60 142 0.0 0.0 0.00 0.00 0.00 69 1022.7
20260906035018 60 142 0.0 0.0 0.00 0.00 0.00 68 1022.7
20260906034025 60 142 0.0 0.0 0.00 0.00 0.00 68 1022.6
20260906033014 61 142 0.0 0.0 0.00 0.00 0.00 67 1022.4
20260906032022 60 142 0.0 0.0 0.00 0.00 0.00 69 1022.5
20260906031051 60 142 0.0 0.0 0.00 0.00 0.00 69 1022.5
20260906030031 60 142 0.0 0.0 0.00 0.00 0.00 68 1022.4
20260906025014 60 142 0.0 0.0 0.00 0.00 0.00 69 1022.4
20260906024020 59 142 0.0 0.0 0.00 0.00 0.00 70 1022.3
20260906023048 60 142 0.0 0.0 0.00 0.00 0.00 69 1022.4
20260906022015 60 142 0.0 0.0 0.00 0.00 0.00 68 1022.4
20260906021021 60 142 0.0 0.0 0.00 0.00 0.00 68 1022.4
20260906020031 60 142 0.0 0.0 0.00 0.00 0.00 69 1022.3
20260906015028 60 142 0.0 0.0 0.00 0.00 0.00 68 1022.4
20260906014016 60 142 0.0 0.0 0.00 0.00 0.00 68 1022.5
20260906013026 60 142 0.0 0.0 0.00 0.00 0.00 68 1022.5
20260906012014 61 142 0.0 0.0 0.00 0.00 0.00 67 1022.5
20260906011021 60 142 0.0 0.0 0.00 0.00 0.00 68 1022.6
20260906010031 61 142 0.0 0.0 0.00 0.00 0.00 68 1022.6
20260906005037 60 142 0.0 1.0 0.00 0.00 0.00 68 1022.6
20260906004020 61 142 0.0 0.0 0.00 0.00 0.00 68 1022.7
20260906003028 61 142 0.0 0.0 0.00 0.00 0.00 68 1022.7
20260906002015 62 142 0.0 0.0 0.00 0.00 0.00 66 1022.7
20260906001021 61 142 0.0 0.0 0.00 0.00 0.00 67 1022.7
20260906000032 61 142 0.0 0.0 0.00 0.00 0.00 67 1022.7
20260905235027 62 142 0.0 0.0 0.00 0.00 0.00 65 1022.8
20260905234015 62 142 0.0 0.0 0.00 0.00 0.00 65 1022.8
20260905233023 62 142 0.0 0.0 0.00 0.00 0.00 65 1022.9
20260905232012 62 142 0.0 0.0 0.00 0.00 0.00 64 1023.0
20260905231020 62 142 0.0 0.0 0.00 0.00 0.00 65 1023.1
20260905230031 63 142 0.0 0.0 0.00 0.00 0.00 64 1023.0
20260905225042 63 142 0.0 0.0 0.00 0.00 0.00 64 1023.0
20260905224023 63 142 0.0 0.0 0.00 0.00 0.00 63 1023.1
20260905223012 62 142 0.0 0.0 0.00 0.00 0.00 64 1023.2
20260905222019 63 142 0.0 0.0 0.00 0.00 0.00 63 1023.3
20260905221021 63 142 0.0 0.0 0.00 0.00 0.00 63 1023.3
20260905220031 63 142 0.0 0.0 0.00 0.00 0.00 62 1023.4
20260905215036 64 142 0.0 0.0 0.00 0.00 0.00 61 1023.4
20260905214024 64 142 0.0 0.0 0.00 0.00 0.00 61 1023.4
20260905213033 64 142 0.0 0.0 0.00 0.00 0.00 61 1023.4
20260905212019 64 142 0.0 0.0 0.00 0.00 0.00 60 1023.3
20260905211025 64 142 0.0 0.0 0.00 0.00 0.00 60 1023.3
20260905210032 65 142 0.0 0.0 0.00 0.00 0.00 60 1023.3
20260905205036 64 142 0.0 0.0 0.00 0.00 0.00 60 1023.4
20260905204018 66 142 0.0 0.0 0.00 0.00 0.00 58 1023.4
20260905203027 65 142 0.0 0.0 0.00 0.00 0.00 58 1023.4
20260905202014 66 142 0.0 2.0 0.00 0.00 0.00 58 1023.4
20260905201024 65 142 0.0 0.0 0.00 0.00 0.00 58 1023.5
20260905200052 66 142 0.0 0.0 0.00 0.00 0.00 57 1023.5
20260905195049 66 142 0.0 0.0 0.00 0.00 0.00 58 1023.6
20260905194016 65 142 0.0 0.0 0.00 0.00 0.00 59 1023.6
20260905193025 66 142 0.0 2.0 0.00 0.00 0.00 57 1023.6
20260905192014 67 142 0.0 3.0 0.00 0.00 0.00 56 1023.5
20260905191021 68 142 2.0 4.0 0.00 0.00 0.00 55 1023.6
20260905190031 68 93 0.0 3.0 0.00 0.00 0.00 55 1023.8
20260905185016 67 93 1.0 3.0 0.00 0.00 0.00 57 1023.6
20260905184019 68 93 0.0 0.0 0.00 0.00 0.00 57 1023.5
20260905183028 70 93 0.0 0.0 0.00 0.00 0.00 54 1023.4
20260905182016 69 92 0.0 0.0 0.00 0.00 0.00 54 1023.2
20260905181024 69 92 0.0 3.0 0.00 0.00 0.00 54 1023.1
20260905180031 71 103 2.0 3.0 0.00 0.00 0.00 52 1023.1
20260905175031 70 96 0.0 4.0 0.00 0.00 0.00 52 1023.0
20260905174020 70 128 0.0 2.0 0.00 0.00 0.00 51 1022.9
20260905173028 71 128 3.0 4.0 0.00 0.00 0.00 49 1022.8
20260905172016 72 132 2.0 3.0 0.00 0.00 0.00 47 1022.7
20260905171024 73 130 2.0 6.0 0.00 0.00 0.00 46 1022.6
20260905170032 73 138 1.0 4.0 0.00 0.00 0.00 46 1022.7
20260905165015 74 159 2.0 5.0 0.00 0.00 0.00 44 1022.6
20260905164019 75 157 2.0 3.0 0.00 0.00 0.00 43 1022.6
20260905163049 76 186 1.0 3.0 0.00 0.00 0.00 42 1022.5
20260905162016 78 318 3.0 8.0 0.00 0.00 0.00 39 1022.5
20260905161023 79 316 3.0 8.0 0.00 0.00 0.00 39 1022.5
20260905160032 79 270 3.0 10.0 0.00 0.00 0.00 38 1022.5
20260905155021 80 336 7.0 13.0 0.00 0.00 0.00 37 1022.4
20260905154031 80 301 5.0 11.0 0.00 0.00 0.00 37 1022.5
20260905153036 81 347 6.0 12.0 0.00 0.00 0.00 37 1022.3
20260905152017 81 355 8.0 13.0 0.00 0.00 0.00 38 1022.4
20260905151057 81 331 7.0 15.0 0.00 0.00 0.00 38 1022.3
20260905150033 81 335 6.0 14.0 0.00 0.00 0.00 38 1022.3
20260905145018 81 327 6.0 17.0 0.00 0.00 0.00 39 1022.2
20260905144024 82 343 7.0 14.0 0.00 0.00 0.00 38 1022.2
20260905143032 82 349 10.0 16.0 0.00 0.00 0.00 39 1022.0
20260905142017 83 325 13.0 20.0 0.00 0.00 0.00 38 1021.9
20260905141023 84 248 6.0 13.0 0.00 0.00 0.00 36 1021.8
20260905140033 84 336 5.0 14.0 0.00 0.00 0.00 35 1021.8
20260905135013 85 329 9.0 13.0 0.00 0.00 0.00 35 1021.8
20260905134019 85 313 6.0 14.0 0.00 0.00 0.00 35 1021.7
20260905133028 85 346 9.0 14.0 0.00 0.00 0.00 34 1021.8
20260905132037 86 316 8.0 11.0 0.00 0.00 0.00 31 1021.8
20260905131023 88 320 3.0 7.0 0.00 0.00 0.00 27 1021.7
20260905130032 87 246 4.0 9.0 0.00 0.00 0.00 29 1021.7
20260905125036 87 312 4.0 10.0 0.00 0.00 0.00 28 1021.8
20260905124020 86 348 2.0 8.0 0.00 0.00 0.00 30 1021.9
20260905123029 87 293 3.0 9.0 0.00 0.00 0.00 29 1022.0
20260905122017 87 78 2.0 6.0 0.00 0.00 0.00 29 1022.1
20260905121023 86 157 5.0 9.0 0.00 0.00 0.00 27 1022.1
20260905120032 86 318 3.0 5.0 0.00 0.00 0.00 28 1022.4
20260905115012 87 201 3.0 8.0 0.00 0.00 0.00 27 1022.6
20260905114019 87 325 3.0 7.0 0.00 0.00 0.00 26 1022.6
20260905113048 85 50 3.0 5.0 0.00 0.00 0.00 26 1022.6
20260905112014 85 163 4.0 7.0 0.00 0.00 0.00 28 1022.7
20260905111022 85 265 2.0 5.0 0.00 0.00 0.00 28 1022.8
20260905110052 86 171 4.0 8.0 0.00 0.00 0.00 29 1022.7
20260905105016 85 190 4.0 8.0 0.00 0.00 0.00 30 1022.9
20260905104021 85 194 2.0 7.0 0.00 0.00 0.00 30 1022.8
20260905103029 84 201 3.0 10.0 0.00 0.00 0.00 30 1022.8
20260905102015 84 132 3.0 9.0 0.00 0.00 0.00 32 1023.0
20260905101022 83 165 4.0 7.0 0.00 0.00 0.00 34 1022.9
20260905100032 83 196 3.0 7.0 0.00 0.00 0.00 31 1023.0
20260905095016 82 355 1.0 8.0 0.00 0.00 0.00 34 1023.1
20260905094021 83 173 4.0 10.0 0.00 0.00 0.00 34 1023.1
20260905093031 82 161 3.0 8.0 0.00 0.00 0.00 34 1023.1
20260905092020 82 194 3.0 8.0 0.00 0.00 0.00 35 1023.2
20260905091025 81 209 2.0 8.0 0.00 0.00 0.00 38 1023.3
20260905090031 80 271 2.0 8.0 0.00 0.00 0.00 37 1023.3
20260905085030 80 279 1.0 6.0 0.00 0.00 0.00 38 1023.5
20260905084017 81 139 2.0 5.0 0.00 0.00 0.00 37 1023.4
20260905083025 81 112 1.0 10.0 0.00 0.00 0.00 38 1023.4
20260905082015 79 192 4.0 7.0 0.00 0.00 0.00 41 1023.3
20260905081023 79 171 2.0 7.0 0.00 0.00 0.00 40 1023.4
20260905080033 78 166 4.0 7.0 0.00 0.00 0.00 40 1023.3
20260905075034 78 185 4.0 9.0 0.00 0.00 0.00 41 1023.3
20260905074020 77 161 2.0 8.0 0.00 0.00 0.00 42 1023.2